Voltar ao catálogo

SL-8 R/B

AtivoLEO
NORAD 21419·ROCKET BODY·🇷🇺 Russia

Lançado Jun 11, 1991 de Plesetsk Cosmodrome

Loading…

Próximas Passagens (próximas 24 horas)

TLE

AtualizadoSource: Space-Track

Época: Sep 14, 2026, 15:43 UTC

1 21419U 91041B   26257.65516773  .00000015  00000-0  14298-4 0  9998
2 21419  74.0371 239.4998 0039031  61.3681 299.1388 14.35295813844227

Acompanhe SL-8 R/B em tempo real com AllMySat

Download on the App Store